RYR5ME EPPO-LFOB

Flight info

Callsign RYR5ME
Flight time 1h 33m
Altitude 36000
Route ELSUP Z181 XIGRI DCT PENEK DCT POVEL DCT EXOBA DCT ABAMI DCT TOLVU/N0437F370 DCT RAPOR DCT VEDUS
Aircraft B738/M-SDE3FGIJ1LRWY/SB1

Departure

Time 2026-04-22 18:48
Airport Poznań-Ławica Airport (EPPO)

Arrival

Time 2026-04-22 20:21
Airport Beauvais-Tillé airport (LFOB)
Time Latitude Longitude Altitude Speed Heading
2026-04-22 18:25 52.41573 16.83056 287 ft 0 kts 193°
2026-04-22 18:40 52.41579 16.83058 287 ft 3 kts 192°
2026-04-22 18:40 52.41601 16.83065 290 ft 3 kts 186°
2026-04-22 18:40 52.41623 16.83066 287 ft 3 kts 162°
2026-04-22 18:41 52.41637 16.83052 287 ft 2 kts 104°
2026-04-22 18:41 52.41637 16.83049 287 ft 1 kts 103°
2026-04-22 18:43 52.41636 16.83060 287 ft 3 kts 103°
2026-04-22 18:43 52.41626 16.83130 293 ft 10 kts 103°
2026-04-22 18:43 52.41609 16.83251 291 ft 11 kts 102°
2026-04-22 18:43 52.41592 16.83375 292 ft 12 kts 102°
2026-04-22 18:44 52.41573 16.83530 287 ft 16 kts 100°
2026-04-22 18:44 52.41564 16.83721 287 ft 16 kts 93°
2026-04-22 18:44 52.41562 16.83859 287 ft 11 kts 78°
2026-04-22 18:44 52.41608 16.83949 287 ft 10 kts 43°
2026-04-22 18:45 52.41671 16.84004 287 ft 11 kts 20°
2026-04-22 18:45 52.41751 16.84053 290 ft 13 kts 20°
2026-04-22 18:45 52.41808 16.84085 288 ft 6 kts 16°
2026-04-22 18:45 52.41821 16.84073 292 ft 2 kts 304°
2026-04-22 18:46 52.41825 16.84057 289 ft 1 kts 290°
2026-04-22 18:46 52.41827 16.84046 288 ft 0 kts 290°
2026-04-22 18:46 52.41830 16.84036 288 ft 6 kts 290°
2026-04-22 18:46 52.41830 16.84032 288 ft 0 kts 290°
2026-04-22 18:47 52.41854 16.83915 294 ft 38 kts 287°
2026-04-22 18:47 52.42013 16.83099 285 ft 108 kts 287°
2026-04-22 18:47 52.42292 16.81679 404 ft 148 kts 289°
2026-04-22 18:48 52.42612 16.80041 1029 ft 154 kts 290°
2026-04-22 18:48 52.42939 16.78364 1843 ft 150 kts 292°
2026-04-22 18:48 52.43274 16.76643 2274 ft 176 kts 292°
2026-04-22 18:48 52.43678 16.74569 2524 ft 201 kts 292°
2026-04-22 18:49 52.44117 16.72291 2886 ft 218 kts 291°
2026-04-22 18:49 52.44589 16.69833 3200 ft 237 kts 291°
2026-04-22 18:49 52.45095 16.67178 3929 ft 244 kts 291°
2026-04-22 18:49 52.45603 16.64503 4767 ft 247 kts 291°
2026-04-22 18:50 52.46120 16.61781 5537 ft 252 kts 291°
2026-04-22 18:50 52.46645 16.59025 6392 ft 255 kts 292°
2026-04-22 18:50 52.47178 16.56220 7141 ft 259 kts 292°
2026-04-22 18:50 52.47719 16.53371 7896 ft 263 kts 292°
2026-04-22 18:51 52.48267 16.50484 8644 ft 268 kts 291°
2026-04-22 18:51 52.48681 16.47501 9393 ft 276 kts 282°
2026-04-22 18:51 52.48868 16.44356 10157 ft 281 kts 279°
2026-04-22 18:51 52.49016 16.41091 10591 ft 297 kts 279°
2026-04-22 18:52 52.49178 16.37591 10884 ft 315 kts 279°
2026-04-22 18:52 52.49352 16.33960 11471 ft 323 kts 279°
2026-04-22 18:52 52.49536 16.30265 12179 ft 327 kts 279°
2026-04-22 18:52 52.49729 16.26514 12902 ft 332 kts 279°
2026-04-22 18:53 52.49930 16.22717 13626 ft 337 kts 279°
2026-04-22 18:53 52.50135 16.18857 14307 ft 342 kts 279°
2026-04-22 18:53 52.50343 16.14939 15002 ft 346 kts 279°
2026-04-22 18:53 52.50551 16.10983 15699 ft 350 kts 279°
2026-04-22 18:54 52.50761 16.06974 16396 ft 355 kts 279°
2026-04-22 18:54 52.50974 16.02865 17102 ft 359 kts 279°
2026-04-22 18:54 52.51183 15.98810 17779 ft 364 kts 279°
2026-04-22 18:54 52.51397 15.94643 18457 ft 368 kts 279°
2026-04-22 18:55 52.51613 15.90375 19068 ft 373 kts 278°
2026-04-22 18:55 52.51828 15.86111 19679 ft 376 kts 278°
2026-04-22 18:55 52.52042 15.81834 20279 ft 380 kts 278°
2026-04-22 18:55 52.52258 15.77483 20871 ft 384 kts 278°
2026-04-22 18:56 52.52474 15.73094 21469 ft 388 kts 278°
2026-04-22 18:56 52.52691 15.68655 22045 ft 392 kts 278°
2026-04-22 18:56 52.52909 15.64166 22609 ft 396 kts 277°
2026-04-22 18:56 52.53127 15.59639 23155 ft 400 kts 277°
2026-04-22 18:57 52.53345 15.55077 23696 ft 404 kts 277°
2026-04-22 18:57 52.53566 15.50445 24172 ft 407 kts 277°
2026-04-22 18:57 52.53785 15.45781 24574 ft 413 kts 277°
2026-04-22 18:57 52.54003 15.41052 24961 ft 418 kts 275°
2026-04-22 18:58 52.54018 15.36239 25343 ft 425 kts 269°
2026-04-22 18:58 52.53833 15.31363 25760 ft 429 kts 267°
2026-04-22 18:58 52.53593 15.26450 26143 ft 434 kts 266°
2026-04-22 18:58 52.53360 15.21475 26514 ft 439 kts 267°
2026-04-22 18:59 52.53150 15.16464 26896 ft 443 kts 268°
2026-04-22 18:59 52.52959 15.11386 27271 ft 447 kts 268°
2026-04-22 18:59 52.52776 15.06256 27637 ft 452 kts 267°
2026-04-22 18:59 52.52589 15.01095 27997 ft 456 kts 267°
2026-04-22 19:00 52.52398 14.95874 28340 ft 460 kts 267°
2026-04-22 19:00 52.52203 14.90603 28677 ft 464 kts 267°
2026-04-22 19:00 52.52004 14.85293 29014 ft 468 kts 267°
2026-04-22 19:00 52.51802 14.79933 29359 ft 472 kts 267°
2026-04-22 19:01 52.51596 14.74531 29694 ft 476 kts 267°
2026-04-22 19:01 52.51386 14.69078 30022 ft 480 kts 266°
2026-04-22 19:01 52.51172 14.63589 30325 ft 484 kts 266°
2026-04-22 19:01 52.50944 14.58058 30588 ft 487 kts 266°
2026-04-22 19:02 52.50676 14.52504 30854 ft 490 kts 265°
2026-04-22 19:02 52.50313 14.46926 31081 ft 494 kts 261°
2026-04-22 19:02 52.49738 14.41343 31272 ft 499 kts 259°
2026-04-22 19:02 52.49060 14.35743 31501 ft 502 kts 258°
2026-04-22 19:03 52.48343 14.30128 31809 ft 503 kts 257°
2026-04-22 19:03 52.47624 14.24515 32167 ft 503 kts 258°
2026-04-22 19:03 52.46208 14.13178 32265 ft 510 kts 258°
2026-04-22 19:04 52.45512 14.07453 32391 ft 512 kts 258°
2026-04-22 19:04 52.44828 14.01781 32739 ft 511 kts 258°
2026-04-22 19:04 52.44138 13.96044 33177 ft 508 kts 258°
2026-04-22 19:04 52.43455 13.90374 33570 ft 507 kts 258°
2026-04-22 19:05 52.42768 13.84704 33938 ft 507 kts 258°
2026-04-22 19:05 52.42076 13.79029 34221 ft 508 kts 258°
2026-04-22 19:05 52.41379 13.73341 34433 ft 510 kts 258°
2026-04-22 19:05 52.40680 13.67659 34752 ft 509 kts 258°
2026-04-22 19:06 52.39981 13.62010 35202 ft 504 kts 258°
2026-04-22 19:06 52.39287 13.56421 35710 ft 497 kts 258°
2026-04-22 19:06 52.38599 13.50908 36195 ft 491 kts 258°
2026-04-22 19:07 52.37215 13.39888 36270 ft 495 kts 258°
2026-04-22 19:07 52.35812 13.28798 36282 ft 503 kts 258°
2026-04-22 19:08 52.34367 13.17479 36288 ft 514 kts 258°
2026-04-22 19:08 52.32886 13.05964 36291 ft 521 kts 257°
2026-04-22 19:09 52.31380 12.94345 36261 ft 523 kts 257°
2026-04-22 19:09 52.30114 12.84648 36278 ft 517 kts 257°
2026-04-22 19:10 52.28372 12.71418 36286 ft 512 kts 257°
2026-04-22 19:10 52.26863 12.60064 36289 ft 511 kts 257°
2026-04-22 19:11 52.25344 12.48723 36298 ft 511 kts 257°
2026-04-22 19:11 52.23814 12.37386 36299 ft 512 kts 256°
2026-04-22 19:12 52.22273 12.26050 36312 ft 512 kts 256°
2026-04-22 19:12 52.20718 12.14708 36314 ft 512 kts 256°
2026-04-22 19:13 52.19142 12.03293 36310 ft 513 kts 256°
2026-04-22 19:13 52.17565 11.91961 36314 ft 513 kts 256°
2026-04-22 19:14 52.15976 11.80627 36329 ft 512 kts 256°
2026-04-22 19:14 52.14652 11.71250 36312 ft 511 kts 256°
2026-04-22 19:15 52.13053 11.60005 36310 ft 509 kts 256°
2026-04-22 19:15 52.11447 11.48792 36322 ft 508 kts 256°
2026-04-22 19:16 52.09835 11.37615 36327 ft 507 kts 256°
2026-04-22 19:16 52.08215 11.26465 36329 ft 506 kts 256°
2026-04-22 19:17 52.06585 11.15329 36328 ft 506 kts 256°
2026-04-22 19:17 52.04948 11.04226 36329 ft 505 kts 255°
2026-04-22 19:18 52.03304 10.93151 36332 ft 504 kts 255°
2026-04-22 19:18 52.01651 10.82096 36343 ft 504 kts 256°
2026-04-22 19:19 51.99990 10.71062 36650 ft 502 kts 256°
2026-04-22 19:19 51.99159 10.65577 36964 ft 498 kts 256°
2026-04-22 19:19 51.98334 10.60140 37295 ft 495 kts 256°
2026-04-22 19:20 51.96674 10.49265 37338 ft 496 kts 256°
2026-04-22 19:20 51.95847 10.43875 37172 ft 491 kts 256°
2026-04-22 19:20 51.95020 10.38495 36914 ft 493 kts 256°
2026-04-22 19:20 51.94186 10.33099 36673 ft 496 kts 256°
2026-04-22 19:21 51.93343 10.27655 36430 ft 497 kts 255°
2026-04-22 19:21 51.91665 10.16883 36360 ft 491 kts 255°
2026-04-22 19:22 51.89977 10.06112 36361 ft 495 kts 255°
2026-04-22 19:22 51.88257 9.95211 36358 ft 497 kts 255°
2026-04-22 19:23 51.86535 9.84368 36367 ft 497 kts 255°
2026-04-22 19:23 51.84805 9.73549 36343 ft 496 kts 256°
2026-04-22 19:24 51.83074 9.62792 36347 ft 493 kts 256°
2026-04-22 19:24 51.81343 9.52104 36348 ft 491 kts 255°
2026-04-22 19:25 51.79607 9.41452 36349 ft 489 kts 255°
2026-04-22 19:25 51.77873 9.30873 36357 ft 488 kts 255°
2026-04-22 19:26 51.76129 9.20306 36355 ft 487 kts 255°
2026-04-22 19:26 51.74375 9.09744 36356 ft 487 kts 255°
2026-04-22 19:27 51.72613 8.99196 36354 ft 487 kts 255°
2026-04-22 19:27 51.70875 8.88859 36348 ft 466 kts 255°
2026-04-22 19:28 51.69187 8.78881 36349 ft 459 kts 255°
2026-04-22 19:28 51.67500 8.68958 36350 ft 458 kts 255°
2026-04-22 19:29 51.65810 8.59073 36349 ft 457 kts 255°
2026-04-22 19:29 51.64962 8.54137 36140 ft 457 kts 255°
2026-04-22 19:29 51.64127 8.49286 35825 ft 451 kts 255°
2026-04-22 19:29 51.63289 8.44432 35444 ft 447 kts 255°
2026-04-22 19:30 51.62736 8.41238 35198 ft 445 kts 255°
2026-04-22 19:30 51.61195 8.35173 35014 ft 430 kts 238°
2026-04-22 19:30 51.59519 8.31262 35010 ft 423 kts 230°
2026-04-22 19:31 51.55478 8.24234 35049 ft 435 kts 223°
2026-04-22 19:31 51.51085 8.17431 35001 ft 435 kts 223°
2026-04-22 19:31 51.48922 8.14096 34664 ft 430 kts 224°
2026-04-22 19:32 51.46781 8.10772 34385 ft 424 kts 224°
2026-04-22 19:32 51.42593 8.04219 34374 ft 425 kts 224°
2026-04-22 19:33 51.38293 7.97473 34365 ft 439 kts 224°
2026-04-22 19:33 51.33909 7.90611 34350 ft 442 kts 224°
2026-04-22 19:34 51.29484 7.83705 34356 ft 442 kts 224°
2026-04-22 19:34 51.25082 7.76854 34347 ft 440 kts 224°
2026-04-22 19:35 51.20710 7.70067 34351 ft 437 kts 224°
2026-04-22 19:35 51.17109 7.64482 34346 ft 434 kts 225°
2026-04-22 19:36 51.12150 7.56517 34342 ft 432 kts 226°
2026-04-22 19:36 51.07944 7.49700 34343 ft 431 kts 226°
2026-04-22 19:37 51.03735 7.42915 34339 ft 432 kts 226°
2026-04-22 19:37 50.99505 7.36134 34334 ft 433 kts 226°
2026-04-22 19:38 50.95252 7.29342 34328 ft 434 kts 226°
2026-04-22 19:38 50.91046 7.22644 34323 ft 436 kts 226°
2026-04-22 19:39 50.86834 7.15956 34322 ft 437 kts 226°
2026-04-22 19:39 50.82524 7.09129 34321 ft 438 kts 226°
2026-04-22 19:40 50.78215 7.02323 34313 ft 438 kts 226°
2026-04-22 19:40 50.73900 6.95526 34328 ft 438 kts 226°
2026-04-22 19:41 50.69580 6.88741 34340 ft 438 kts 226°
2026-04-22 19:41 50.65265 6.81982 34339 ft 437 kts 226°
2026-04-22 19:42 50.60953 6.75246 34333 ft 436 kts 226°
2026-04-22 19:42 50.56642 6.68530 34327 ft 436 kts 226°
2026-04-22 19:43 50.50178 6.58493 34322 ft 435 kts 226°
2026-04-22 19:43 50.45873 6.51830 34328 ft 435 kts 226°
2026-04-22 19:44 50.41619 6.45074 34304 ft 433 kts 233°
2026-04-22 19:44 50.38468 6.37149 34323 ft 429 kts 245°
2026-04-22 19:45 50.35816 6.28716 34317 ft 429 kts 247°
2026-04-22 19:45 50.33188 6.20336 34329 ft 429 kts 246°
2026-04-22 19:46 50.30497 6.12017 33798 ft 432 kts 245°
2026-04-22 19:46 50.29131 6.07859 33477 ft 427 kts 245°
2026-04-22 19:46 50.27776 6.03759 33044 ft 424 kts 245°
2026-04-22 19:47 50.26425 5.99682 32659 ft 420 kts 245°
2026-04-22 19:47 50.25086 5.95648 32278 ft 416 kts 246°
2026-04-22 19:47 50.24205 5.92999 32039 ft 413 kts 246°
2026-04-22 19:47 50.22441 5.87696 31553 ft 409 kts 246°
2026-04-22 19:48 50.21133 5.83768 31190 ft 406 kts 246°
2026-04-22 19:48 50.19833 5.79872 30836 ft 403 kts 246°
2026-04-22 19:48 50.18542 5.76004 30465 ft 401 kts 246°
2026-04-22 19:48 50.17258 5.72166 30051 ft 398 kts 246°
2026-04-22 19:49 50.15982 5.68358 29655 ft 394 kts 246°
2026-04-22 19:49 50.14720 5.64598 29291 ft 390 kts 246°
2026-04-22 19:49 50.13888 5.62119 29032 ft 388 kts 246°
2026-04-22 19:49 50.12641 5.58412 28678 ft 384 kts 245°
2026-04-22 19:50 50.11403 5.54739 28304 ft 381 kts 245°
2026-04-22 19:50 50.10176 5.51100 27951 ft 378 kts 245°
2026-04-22 19:50 50.08952 5.47475 27565 ft 377 kts 245°
2026-04-22 19:50 50.07737 5.43884 27243 ft 375 kts 245°
2026-04-22 19:51 50.06522 5.40294 26885 ft 378 kts 245°
2026-04-22 19:51 50.05294 5.36670 26541 ft 378 kts 245°
2026-04-22 19:51 50.04071 5.33069 26178 ft 376 kts 245°
2026-04-22 19:51 50.02833 5.29433 25812 ft 373 kts 245°
2026-04-22 19:52 50.01621 5.25876 25465 ft 371 kts 245°
2026-04-22 19:52 50.00418 5.22351 25342 ft 369 kts 245°
2026-04-22 19:52 49.99226 5.18862 25318 ft 361 kts 245°
2026-04-22 19:52 49.98066 5.15478 25297 ft 349 kts 245°
2026-04-22 19:53 49.96945 5.12207 25304 ft 336 kts 245°
2026-04-22 19:53 49.95867 5.09065 25306 ft 323 kts 245°
2026-04-22 19:53 49.94829 5.06040 25294 ft 312 kts 245°
2026-04-22 19:53 49.93823 5.03107 25304 ft 305 kts 245°
2026-04-22 19:54 49.92806 5.00141 25340 ft 320 kts 245°
2026-04-22 19:54 49.91733 4.97017 25349 ft 337 kts 245°
2026-04-22 19:54 49.90600 4.93736 25345 ft 352 kts 245°
2026-04-22 19:54 49.89431 4.90392 25321 ft 353 kts 244°
2026-04-22 19:55 49.88254 4.87043 25316 ft 353 kts 244°
2026-04-22 19:55 49.87081 4.83711 25307 ft 353 kts 244°
2026-04-22 19:55 49.85906 4.80371 25312 ft 352 kts 245°
2026-04-22 19:55 49.84736 4.77043 25311 ft 352 kts 245°
2026-04-22 19:56 49.83566 4.73720 25307 ft 351 kts 245°
2026-04-22 19:56 49.82395 4.70392 25308 ft 351 kts 245°
2026-04-22 19:56 49.81225 4.67073 25307 ft 351 kts 245°
2026-04-22 19:56 49.80054 4.63760 25306 ft 351 kts 245°
2026-04-22 19:57 49.78882 4.60447 25300 ft 350 kts 244°
2026-04-22 19:57 49.77709 4.57140 25305 ft 350 kts 244°
2026-04-22 19:57 49.76538 4.53841 25307 ft 350 kts 244°
2026-04-22 19:57 49.75365 4.50539 25292 ft 350 kts 244°
2026-04-22 19:58 49.74191 4.47240 25294 ft 350 kts 245°
2026-04-22 19:58 49.73022 4.43957 25301 ft 350 kts 245°
2026-04-22 19:58 49.71854 4.40680 25257 ft 344 kts 245°
2026-04-22 19:58 49.70694 4.37432 24693 ft 348 kts 244°
2026-04-22 19:59 49.69514 4.34124 23910 ft 357 kts 244°
2026-04-22 20:00 49.62287 4.13988 20460 ft 352 kts 243°
2026-04-22 20:00 49.61229 4.10631 20047 ft 345 kts 254°
2026-04-22 20:01 49.60763 4.07050 19823 ft 339 kts 270°
2026-04-22 20:01 49.60661 4.03306 19632 ft 364 kts 271°
2026-04-22 20:01 49.60571 3.99263 19417 ft 392 kts 271°
2026-04-22 20:01 49.60471 3.94942 19187 ft 410 kts 270°
2026-04-22 20:02 49.60355 3.90524 18942 ft 413 kts 270°
2026-04-22 20:02 49.60229 3.86108 18696 ft 411 kts 270°
2026-04-22 20:02 49.60096 3.81706 18434 ft 411 kts 270°
2026-04-22 20:02 49.59960 3.77317 18158 ft 410 kts 269°
2026-04-22 20:03 49.59823 3.72932 17881 ft 409 kts 269°
2026-04-22 20:03 49.59684 3.68559 17612 ft 408 kts 269°
2026-04-22 20:03 49.59544 3.64198 17346 ft 407 kts 269°
2026-04-22 20:03 49.59403 3.59854 17077 ft 406 kts 269°
2026-04-22 20:04 49.59261 3.55517 16806 ft 404 kts 269°
2026-04-22 20:04 49.59118 3.51199 16561 ft 403 kts 269°
2026-04-22 20:04 49.58974 3.46899 16292 ft 401 kts 269°
2026-04-22 20:04 49.58828 3.42607 16036 ft 400 kts 268°
2026-04-22 20:05 49.58682 3.38337 15788 ft 399 kts 268°
2026-04-22 20:05 49.58533 3.34021 15534 ft 397 kts 268°
2026-04-22 20:05 49.58384 3.29762 15130 ft 400 kts 268°
2026-04-22 20:05 49.58236 3.25541 14646 ft 398 kts 268°
2026-04-22 20:06 49.58082 3.21236 14164 ft 396 kts 268°
2026-04-22 20:06 49.57930 3.17026 13634 ft 391 kts 268°
2026-04-22 20:06 49.57778 3.12861 13106 ft 387 kts 267°
2026-04-22 20:06 49.57626 3.08743 12583 ft 383 kts 267°
2026-04-22 20:07 49.57475 3.04664 12073 ft 379 kts 267°
2026-04-22 20:07 49.57324 3.00631 11572 ft 376 kts 267°
2026-04-22 20:07 49.57173 2.96636 11081 ft 372 kts 267°
2026-04-22 20:07 49.57021 2.92673 10594 ft 369 kts 267°
2026-04-22 20:08 49.56871 2.88756 10103 ft 361 kts 266°
2026-04-22 20:08 49.56723 2.84957 9568 ft 351 kts 266°
2026-04-22 20:08 49.56589 2.81243 9115 ft 341 kts 269°
2026-04-22 20:08 49.56720 2.77682 8858 ft 326 kts 276°
2026-04-22 20:09 49.56954 2.74284 8585 ft 313 kts 276°
2026-04-22 20:09 49.57197 2.71009 8321 ft 302 kts 277°
2026-04-22 20:09 49.57438 2.67843 8063 ft 293 kts 276°
2026-04-22 20:09 49.57681 2.64766 7798 ft 286 kts 277°
2026-04-22 20:10 49.57925 2.61750 7547 ft 282 kts 277°
2026-04-22 20:10 49.58170 2.58752 7307 ft 283 kts 277°
2026-04-22 20:10 49.58419 2.55744 7068 ft 283 kts 277°
2026-04-22 20:10 49.58671 2.52734 6836 ft 283 kts 277°
2026-04-22 20:11 49.58925 2.49728 6586 ft 283 kts 277°
2026-04-22 20:11 49.59181 2.46721 6332 ft 283 kts 277°
2026-04-22 20:11 49.59438 2.43721 6076 ft 283 kts 277°
2026-04-22 20:11 49.59696 2.40720 5815 ft 282 kts 277°
2026-04-22 20:12 49.59954 2.37730 5566 ft 281 kts 277°
2026-04-22 20:12 49.60211 2.34739 5319 ft 281 kts 277°
2026-04-22 20:12 49.60380 2.32769 5158 ft 282 kts 277°
2026-04-22 20:12 49.60726 2.28726 5028 ft 285 kts 277°
2026-04-22 20:13 49.60986 2.25682 5009 ft 286 kts 277°
2026-04-22 20:13 49.61246 2.22639 5008 ft 286 kts 276°
2026-04-22 20:13 49.61351 2.19579 5006 ft 286 kts 268°
2026-04-22 20:13 49.61319 2.16505 5000 ft 287 kts 267°
2026-04-22 20:14 49.61272 2.13442 4973 ft 285 kts 267°
2026-04-22 20:14 49.61222 2.10393 4808 ft 283 kts 267°
2026-04-22 20:14 49.61167 2.07358 4436 ft 284 kts 267°
2026-04-22 20:14 49.61103 2.04293 4050 ft 287 kts 267°
2026-04-22 20:15 49.61029 2.01214 3730 ft 287 kts 267°
2026-04-22 20:15 49.60946 1.98157 3565 ft 279 kts 267°
2026-04-22 20:15 49.60849 1.95236 3368 ft 268 kts 263°
2026-04-22 20:15 49.60273 1.92615 3115 ft 251 kts 231°
2026-04-22 20:16 49.59048 1.90972 2997 ft 220 kts 196°
2026-04-22 20:16 49.57689 1.90705 2993 ft 182 kts 159°
2026-04-22 20:16 49.56524 1.91263 2769 ft 172 kts 152°
2026-04-22 20:16 49.55395 1.91900 2376 ft 174 kts 152°
2026-04-22 20:17 49.54266 1.92551 2077 ft 172 kts 152°
2026-04-22 20:17 49.53218 1.93426 2021 ft 169 kts 127°
2026-04-22 20:17 49.52672 1.94954 2017 ft 161 kts 114°
2026-04-22 20:17 49.51959 1.96310 2015 ft 164 kts 127°
2026-04-22 20:18 49.51304 1.97726 2007 ft 160 kts 118°
2026-04-22 20:18 49.50722 1.99104 2020 ft 147 kts 118°
2026-04-22 20:18 49.50183 2.00352 1914 ft 134 kts 118°
2026-04-22 20:18 49.49681 2.01510 1748 ft 128 kts 118°
2026-04-22 20:19 49.49187 2.02650 1592 ft 129 kts 117°
2026-04-22 20:19 49.48686 2.03805 1418 ft 131 kts 117°
2026-04-22 20:19 49.48170 2.04990 1228 ft 137 kts 120°
2026-04-22 20:19 49.47627 2.06236 1031 ft 141 kts 119°
2026-04-22 20:20 49.47072 2.07527 837 ft 148 kts 120°
2026-04-22 20:20 49.46497 2.08849 661 ft 149 kts 119°
2026-04-22 20:20 49.45919 2.10159 429 ft 147 kts 118°
2026-04-22 20:20 49.45376 2.11432 333 ft 133 kts 121°
2026-04-22 20:21 49.44978 2.12349 328 ft 71 kts 123°
2026-04-22 20:21 49.44720 2.12943 312 ft 55 kts 124°
2026-04-22 20:21 49.44649 2.13162 308 ft 18 kts 91°
2026-04-22 20:21 49.44718 2.13296 308 ft 16 kts
2026-04-22 20:22 49.44805 2.13206 309 ft 16 kts 306°
2026-04-22 20:22 49.44864 2.13070 312 ft 15 kts 304°
2026-04-22 20:22 49.44920 2.12941 316 ft 14 kts 304°
2026-04-22 20:22 49.44975 2.12817 319 ft 14 kts 305°
2026-04-22 20:23 49.45014 2.12712 321 ft 6 kts 289°
2026-04-22 20:23 49.45017 2.12698 323 ft 0 kts 283°
2026-04-22 20:26 49.45017 2.12697 323 ft 1 kts 283°
2026-04-22 20:26 49.45022 2.12637 324 ft 10 kts 274°
2026-04-22 20:26 49.45026 2.12513 326 ft 13 kts 274°
2026-04-22 20:27 49.45032 2.12376 328 ft 13 kts 274°
2026-04-22 20:27 49.45041 2.12229 327 ft 15 kts 283°
2026-04-22 20:27 49.45097 2.12081 331 ft 20 kts 303°
2026-04-22 20:27 49.45196 2.11849 331 ft 30 kts 303°
2026-04-22 20:28 49.45319 2.11568 336 ft 31 kts 303°
2026-04-22 20:28 49.45406 2.11366 339 ft 13 kts 303°
2026-04-22 20:28 49.45470 2.11324 336 ft 12 kts 27°
2026-04-22 20:28 49.45532 2.11402 348 ft 12 kts 40°
2026-04-22 20:29 49.45600 2.11496 352 ft 15 kts 41°
2026-04-22 20:29 49.45679 2.11604 346 ft 12 kts 41°
2026-04-22 20:29 49.45745 2.11586 353 ft 11 kts 315°
2026-04-22 20:29 49.45798 2.11488 350 ft 12 kts 292°
2026-04-22 20:30 49.45754 2.11381 350 ft 13 kts 221°
2026-04-22 20:30 49.45700 2.11282 350 ft 12 kts 259°
2026-04-22 20:30 49.45733 2.11167 349 ft 12 kts 303°
2026-04-22 20:30 49.45769 2.11084 347 ft 5 kts 303°
2026-04-22 20:31 49.45794 2.11083 347 ft 4 kts 28°
2026-04-22 20:31 49.45814 2.11103 349 ft 3 kts 33°
2026-04-22 20:31 49.45824 2.11113 347 ft 0 kts 33°
2026-04-22 20:31 49.45827 2.11116 347 ft 0 kts 33°